When you browse on this site, cookies collect data to enhance your experience and personalize the content and advertising you see.
Visit our Privacy Policy to learn more. By continuing to use the site, you agree to this use of cookies and data.
  • In Österreich
  • Länderverzeichnis
  • Für 7 Tage
  • Wassertemperatur
  • Satellitenkarten
  • Wetterkarte
  • News
  • Widgets
  • user-avatar
    Anmelden

    Stündliche Wetter Senaki

    Heute, 21 November, Mittwoch

    Zeit Temperatur Niederschläge Wind Luftdruck Luftfeuchtigkeit
    00:00 +14°C° 0.8 mm 2 m/S 762 mmHg 92%
    01:00 +14°C° 0.7 mm 2 m/S 762 mmHg 92%
    02:00 +13°C° 0.7 mm 2 m/S 762 mmHg 92%
    03:00 +13°C° 0 mm 2 m/S 762 mmHg 92%
    04:00 +13°C° 1.3 mm 2 m/S 762 mmHg 91%
    05:00 +13°C° 1.3 mm 1 m/S 762 mmHg 91%
    06:00 +13°C° 1.3 mm 1 m/S 762 mmHg 91%
    07:00 +13°C° 1.3 mm 1 m/S 762 mmHg 90%
    08:00 +13°C° 1.3 mm 1 m/S 761 mmHg 90%
    09:00 +13°C° 1.3 mm 1 m/S 761 mmHg 89%
    10:00 +13°C° 0.8 mm 1 m/S 761 mmHg 89%
    11:00 +13°C° 0.8 mm 1 m/S 760 mmHg 88%
    12:00 +13°C° 0.8 mm 2 m/S 760 mmHg 87%
    13:00 +13°C° 0.4 mm 2 m/S 760 mmHg 88%
    14:00 +13°C° 0.4 mm 1 m/S 759 mmHg 88%
    15:00 +13°C° 0.4 mm 1 m/S 759 mmHg 88%
    16:00 +13°C° 0.2 mm 1 m/S 759 mmHg 89%
    17:00 +12°C° 0.2 mm 1 m/S 759 mmHg 89%
    18:00 +12°C° 0.2 mm 1 m/S 759 mmHg 90%
    19:00 +12°C° 0.5 mm 1 m/S 759 mmHg 90%
    20:00 +12°C° 0.5 mm 1 m/S 759 mmHg 89%
    21:00 +12°C° 0.5 mm 1 m/S 759 mmHg 89%
    22:00 +12°C° 0.7 mm 1 m/S 759 mmHg 89%
    23:00 +12°C° 0.7 mm 1 m/S 758 mmHg 88%

    Morgen, 22 November, Donnerstag

    Zeit Temperatur Niederschläge Wind Luftdruck Luftfeuchtigkeit
    00:00 +12°C° 0.7 mm 1 m/S 758 mmHg 88%
    01:00 +12°C° 0.7 mm 1 m/S 758 mmHg 88%
    02:00 +12°C° 0.7 mm 1 m/S 758 mmHg 88%
    03:00 +12°C° 0.7 mm 1 m/S 758 mmHg 88%
    04:00 +12°C° 0.7 mm 1 m/S 758 mmHg 88%
    05:00 +12°C° 0.7 mm 1 m/S 757 mmHg 88%
    06:00 +12°C° 0.7 mm 1 m/S 757 mmHg 88%
    07:00 +12°C° 0.7 mm 1 m/S 757 mmHg 88%
    08:00 +12°C° 0.7 mm 1 m/S 757 mmHg 87%
    09:00 +12°C° 0.7 mm 1 m/S 757 mmHg 87%
    10:00 +13°C° 0.9 mm 1 m/S 757 mmHg 86%
    11:00 +13°C° 0.9 mm 1 m/S 757 mmHg 85%
    12:00 +13°C° 0.9 mm 1 m/S 756 mmHg 84%
    13:00 +13°C° 1.1 mm 1 m/S 756 mmHg 85%
    14:00 +13°C° 1.1 mm 1 m/S 756 mmHg 86%
    15:00 +13°C° 1.1 mm 1 m/S 756 mmHg 87%
    16:00 +13°C° 1.3 mm 1 m/S 757 mmHg 87%
    17:00 +12°C° 1.3 mm 1 m/S 757 mmHg 88%
    18:00 +12°C° 1.3 mm 1 m/S 757 mmHg 89%
    19:00 +12°C° 1 mm 1 m/S 758 mmHg 89%
    20:00 +12°C° 1 mm 1 m/S 758 mmHg 89%
    21:00 +12°C° 1 mm 1 m/S 758 mmHg 90%
    22:00 +12°C° 1.1 mm 1 m/S 758 mmHg 90%
    23:00 +12°C° 1.1 mm 1 m/S 759 mmHg 90%

    übermorgen, 23 November, Freitag

    Zeit Temperatur Niederschläge Wind Luftdruck Luftfeuchtigkeit
    00:00 +12°C° 1.1 mm 1 m/S 759 mmHg 91%
    01:00 +12°C° 1.2 mm 1 m/S 759 mmHg 91%
    02:00 +12°C° 1.2 mm 1 m/S 759 mmHg 91%
    03:00 +12°C° 1.2 mm 1 m/S 759 mmHg 92%
    04:00 +12°C° 1.4 mm 1 m/S 760 mmHg 92%
    05:00 +12°C° 1.4 mm 1 m/S 760 mmHg 92%
    06:00 +12°C° 1.4 mm 1 m/S 760 mmHg 92%
    07:00 +12°C° 1.1 mm 1 m/S 761 mmHg 92%
    08:00 +12°C° 1.1 mm 2 m/S 761 mmHg 92%
    09:00 +12°C° 1.1 mm 2 m/S 762 mmHg 91%
    10:00 +12°C° 0.6 mm 2 m/S 762 mmHg 90%
    11:00 +12°C° 0.6 mm 3 m/S 762 mmHg 89%
    12:00 +12°C° 0.6 mm 3 m/S 762 mmHg 88%
    13:00 +12°C° 0.3 mm 3 m/S 762 mmHg 87%
    14:00 +12°C° 0.3 mm 3 m/S 762 mmHg 85%
    15:00 +12°C° 0.3 mm 3 m/S 763 mmHg 84%
    16:00 +11°C° 0.3 mm 3 m/S 763 mmHg 86%
    17:00 +10°C° 0.3 mm 3 m/S 764 mmHg 89%
    18:00 +10°C° 0.3 mm 2 m/S 765 mmHg 91%
    19:00 +10°C° 0.2 mm 2 m/S 765 mmHg 91%
    20:00 +9°C° 0.2 mm 2 m/S 766 mmHg 91%
    21:00 +10°C° 0.2 mm 1 m/S 766 mmHg 91%
    22:00 +10°C° 0.1 mm 1 m/S 767 mmHg 91%
    23:00 +10°C° 0.1 mm 1 m/S 767 mmHg 90%

    24 November, Samstag

    Zeit Temperatur Niederschläge Wind Luftdruck Luftfeuchtigkeit
    00:00 +10°C° 0.1 mm 1 m/S 768 mmHg 90%
    01:00 +10°C° 0.1 mm 1 m/S 768 mmHg 90%
    02:00 +9°C° 0.1 mm 1 m/S 768 mmHg 89%
    03:00 +9°C° 0.1 mm 1 m/S 768 mmHg 89%
    04:00 +9°C° 0 mm 1 m/S 768 mmHg 87%
    05:00 +8°C° 0 mm 2 m/S 768 mmHg 85%
    06:00 +8°C° 0 mm 2 m/S 768 mmHg 83%
    07:00 +8°C° 0 mm 2 m/S 768 mmHg 80%
    08:00 +9°C° 0 mm 2 m/S 769 mmHg 77%
    09:00 +10°C° 0 mm 2 m/S 769 mmHg 73%
    10:00 +12°C° 0 mm 2 m/S 768 mmHg 69%
    11:00 +13°C° 0 mm 2 m/S 768 mmHg 64%
    12:00 +15°C° 0 mm 2 m/S 767 mmHg 60%
    13:00 +15°C° 0 mm 2 m/S 767 mmHg 60%
    14:00 +15°C° 0 mm 2 m/S 766 mmHg 59%
    15:00 +16°C° 0 mm 2 m/S 766 mmHg 59%
    16:00 +13°C° 0 mm 3 m/S 766 mmHg 60%
    17:00 +12°C° 0 mm 3 m/S 767 mmHg 60%
    18:00 +11°C° 0 mm 3 m/S 767 mmHg 61%
    19:00 +10°C° 0 mm 4 m/S 767 mmHg 59%
    20:00 +10°C° 0 mm 4 m/S 767 mmHg 57%
    21:00 +10°C° 0 mm 4 m/S 767 mmHg 56%
    22:00 +10°C° 0 mm 4 m/S 767 mmHg 55%
    23:00 +9°C° 0 mm 5 m/S 767 mmHg 55%

    25 November, Sonntag

    Zeit Temperatur Niederschläge Wind Luftdruck Luftfeuchtigkeit
    00:00 +9°C° 0 mm 5 m/S 766 mmHg 55%
    01:00 +10°C° 0 mm 4 m/S 766 mmHg 56%
    02:00 +8°C° 0 mm 4 m/S 766 mmHg 56%
    03:00 +8°C° 0 mm 4 m/S 765 mmHg 57%
    04:00 +8°C° 0 mm 4 m/S 765 mmHg 57%
    05:00 +8°C° 0 mm 4 m/S 764 mmHg 58%
    06:00 +8°C° 0 mm 4 m/S 764 mmHg 58%
    07:00 +10°C° 0 mm 4 m/S 763 mmHg 58%
    08:00 +11°C° 0 mm 3 m/S 763 mmHg 58%
    09:00 +11°C° 0 mm 3 m/S 763 mmHg 58%
    10:00 +13°C° 0 mm 3 m/S 762 mmHg 55%
    11:00 +14°C° 0 mm 3 m/S 761 mmHg 53%
    12:00 +17°C° 0 mm 3 m/S 760 mmHg 50%
    13:00 +17°C° 0 mm 2 m/S 760 mmHg 53%
    14:00 +17°C° 0 mm 2 m/S 760 mmHg 55%
    15:00 +18°C° 0 mm 1 m/S 759 mmHg 57%
    16:00 +15°C° 0 mm 1 m/S 760 mmHg 60%
    17:00 +14°C° 0 mm 1 m/S 760 mmHg 63%
    18:00 +13°C° 0 mm 1 m/S 760 mmHg 65%
    19:00 +12°C° 0 mm 2 m/S 760 mmHg 65%
    20:00 +12°C° 0 mm 2 m/S 760 mmHg 66%
    21:00 +12°C° 0 mm 2 m/S 761 mmHg 66%
    22:00 +10°C° 0 mm 2 m/S 761 mmHg 66%
    23:00 +10°C° 0 mm 2 m/S 761 mmHg 66%

    26 November, Montag

    Zeit Temperatur Niederschläge Wind Luftdruck Luftfeuchtigkeit
    00:00 +10°C° 0 mm 2 m/S 760 mmHg 66%
    01:00 +10°C° 0 mm 2 m/S 761 mmHg 66%
    02:00 +10°C° 0 mm 2 m/S 761 mmHg 67%
    03:00 +10°C° 0 mm 2 m/S 761 mmHg 67%
    04:00 +10°C° 0 mm 2 m/S 761 mmHg 67%
    05:00 +10°C° 0 mm 2 m/S 761 mmHg 68%
    06:00 +9°C° 0 mm 2 m/S 761 mmHg 68%
    07:00 +10°C° 0 mm 2 m/S 761 mmHg 68%
    08:00 +12°C° 0 mm 2 m/S 761 mmHg 67%
    09:00 +12°C° 0 mm 2 m/S 761 mmHg 67%
    10:00 +14°C° 0 mm 2 m/S 760 mmHg 63%
    11:00 +15°C° 0 mm 2 m/S 760 mmHg 60%
    12:00 +16°C° 0 mm 1 m/S 759 mmHg 56%
    13:00 +16°C° 0 mm 1 m/S 759 mmHg 58%
    14:00 +16°C° 0 mm 1 m/S 759 mmHg 61%
    15:00 +16°C° 0 mm 1 m/S 759 mmHg 63%
    16:00 +15°C° 0 mm 2 m/S 759 mmHg 66%
    17:00 +13°C° 0 mm 2 m/S 759 mmHg 69%
    18:00 +12°C° 0 mm 2 m/S 760 mmHg 72%
    19:00 +11°C° 0 mm 3 m/S 760 mmHg 71%
    20:00 +11°C° 0 mm 3 m/S 760 mmHg 69%
    21:00 +10°C° 0 mm 3 m/S 760 mmHg 67%
    22:00 +10°C° 0 mm 3 m/S 760 mmHg 65%
    23:00 +10°C° 0 mm 3 m/S 760 mmHg 63%
    Mehr zeigen